C/2024 J2 ( Wierzchos )

Japanese version
Home page
Updated on June 29, 2024

---------------------------------------------------------------------

* Profile

Discovery Date May 11, 2024
Magnitude 21.2 mag
Discoverer Kacper W. Wierzchos (Mt. Lemmon Survey)

* Pictures

* Orbital Elements

Epoch 2024 Mar. 31.0 TT = JDT 2460400.5
T 2025 Mar. 19.66053 TT                                 Rudenko
q   1.8105394            (2000.0)            P               Q
z  +0.0063968      Peri.  143.14499     +0.80769872     +0.56888294
 +/-0.0000401      Node   189.07004     -0.21956103     +0.53404583
e   0.9884183      Incl.   79.30462     +0.54718893     -0.62543365
>From 84 observations 2024 Mar. 18-June 17, mean residual 0".8.

* Finding Charts

* Magnitudes Graph

        m1 = 11.5 + 5 log d + 10.0 log r

---------------------------------------------------------------------

The orbital elements are published on M.P.E.C. 2024-M41.
The charts are made with StellaNavigator Ver.11 (AstroArts).
The magnitudes graphs are made with Comet for Windows.

---------------------------------------------------------------------

Copyright(C) Seiichi Yoshida (comet@aerith.net). All rights reserved.